Погода в Кировском

Россия / Республика Крым     45°13′45″N   35°12′33″E
темп.,
°C
ветер,
м/с
пор.,
м/с
влажн.,
%
обл.,
%
осадки,
мм/ч
давл.,
гПа
погр.,
м
8 августа, пн
пн800:00+26ссв59610 0.0 1011214
03:00+25ссв59740 0.0 1011216
06:00+25св611660 0.0 1012395
09:00+29св67480 0.0 1013622
12:00+31св79410 0.0 10131083
15:00+31ссв79380 0.0 10131045
18:00+29ссв58400 0.0 1013453
21:00+27ссв59560 0.0 1012164
9 августа, вт
вт900:00+25св37700 0.0 1012126
03:00+24всв14690 0.0 101296
06:00+24всв36700 0.0 1012147
09:00+30всв811400 0.0 10131070
12:00+31св912390 0.0 10121320
15:00+30св911440 0.0 1011897
18:00+29ссв611472 0.0 1011464
21:00+28св8165292 0.0 1009428
10 августа, ср
ср1000:00+27всв6965100 0.0 1009205
03:00+26св3769100 0.0 1009169
06:00+26св5106523 0.0 1008265
09:00+29св1013460 0.0 10081217
12:00+30св1112412 0.0 10081414
15:00+30св10124998 0.1 1007804
18:00+29св81251100 0.0 1006534
21:00+28св61259100 0.0 1005326
11 августа, чт
чт1100:00+27всв477067 0.0 1005174
03:00+28св475495 0.0 1005147
06:00+27всв474999 0.0 1006281
09:00+28в675699 0.1 1007791
12:00+30всв554971 0.1 10071444
15:00+29всв665665 0.7 10081231
18:00+29всв565840 0.9 1008831
21:00+26всв23671 1.0 100969
12 августа, пт
пт1200:00+25зсз46750 0.0 1009138
03:00+25с36760 0.0 1008203
06:00+23з45810 0.0 1008119
09:00+28ююв23610 0.0 1009647
12:00+31юв56521 0.0 10101089
15:00+30всв565426 0.1 10101159
18:00+29в44580 0.0 1010669
21:00+26ююв11640 0.0 101018